SCP
0 0 0 0 0 0 0 0 0 0 0 0 0 0 0 0 0 0 0 0 0 0 0 0 0 0 0 0 0 0 1 1 2 2 2 2 1 1 1 2 2 3 2 2
0 0 0 0 0 0 0 0 0 0 0 0 0 0 0 0 0 0 0 0 0 0 0 0 0 0 0 0 0 0 0 1 2 2 2 2 1 1 1 1 2 2 2 2
0 0 0 0 0 0 0 0 0 0 0 0 0 0 0 0 0 0 0 0 0 0 0 0 0 0 0 0 0 0 0 0 1 1 2 2 2 1 1 1 1 2 2 2
0 0 0 0 0 0 0 0 0 0 0 0 0 0 0 0 0 0 0 0 0 0 0 0 0 0 0 0 0 0 0 0 0 1 1 1 1 1 1 1 1 1 2 2
0 0 0 0 0 0 0 0 0 0 0 0 0 0 0 0 0 0 0 0 0 0 0 0 0 0 0 0 0 0 0 0 0 0 1 1 1 1 1 1 1 1 1 2
0 0 0 0 0 0 0 0 0 0 0 0 0 0 0 0 0 0 0 0 0 0 0 0 0 0 0 0 0 0 0 0 0 0 0 0 1 1 1 1 1 1 1 1
0 0 0 0 0 0 0 0 0 0 0 0 0 0 0 0 0 0 0 0 0 0 0 0 0 0 0 0 0 0 0 0 0 0 0 0 0 1 1 1 1 1 1 1
0 0 0 0 0 0 0 0 0 0 0 0 0 0 0 0 0 0 0 0 0 0 0 0 0 0 0 0 0 0 0 0 0 0 0 0 0 1 1 1 1 1 1 1
0 0 0 0 0 0 0 0 0 0 0 0 0 0 0 0 0 0 0 0 0 0 0 0 0 0 0 0 0 0 0 0 0 0 0 0 0 0 1 1 1 1 1 1
0 0 0 0 0 0 0 0 0 0 0 0 0 0 0 0 0 0 0 0 0 0 0 0 0 0 0 0 0 0 0 0 0 0 0 0 0 0 0 1 1 1 1 1
0 0 0 0 0 0 0 0 0 0 0 0 0 0 0 0 0 0 0 0 0 0 0 0 0 0 0 0 0 0 0 0 0 0 0 0 0 0 0 0 0 0 0 1
0 0 0 0 0 0 0 0 0 0 0 0 0 0 0 0 0 0 0 0 0 0 0 0 0 0 0 0 0 0 0 0 0 0 0 0 0 0 0 0 0 0 0 0
0 0 0 0 0 0 0 0 0 0 0 0 0 0 0 0 0 0 0 0 0 0 0 0 0 0 0 0 0 0 0 0 0 0 0 0 0 0 0 0 0 0 0 0
0 0 0 0 0 0 0 0 0 0 0 0 0 0 0 0 0 0 0 0 0 0 0 0 0 0 0 0 0 0 0 0 0 0 0 0 0 0 0 0 0 0 0 0
0 0 0 0 0 0 0 0 0 0 0 0 0 0 0 0 0 0 0 0 0 0 0 0 0 0 0 0 0 0 0 0 0 0 0 0 0 0 0 0 0 0 0 0
0 0 0 0 0 0 0 0 0 0 0 0 0 0 0 0 0 0 0 0 0 0 0 0 0 0 0 0 0 0 0 0 0 0 0 0 0 0 0 0 0 0 0 0
0 0 0 0 0 0 0 0 0 0 0 0 0 0 0 0 0 -0 0 0 0 0 0 0 0 0 0 0 0 0 0 0 0 0 0 0 0 0 0 0 0 0 0 0
0 0 0 0 0 0 0 0 0 0 0 0 0 0 0 0 0 -0 0 0 0 0 0 0 0 0 0 0 0 0 0 0 0 0 0 0 0 0 0 0 0 0 0 1
0 0 0 0 0 0 0 0 0 0 0 0 0 0 0 0 0 0 0 0 0 0 0 0 0 0 0 0 0 0 0 0 0 0 0 0 0 0 0 0 0 0 0 0
0 0 0 0 0 0 0 0 0 0 0 0 0 0 0 0 0 0 0 0 0 0 0 0 0 0 0 0 0 0 0 0 0 0 0 0 0 0 0 0 0 0 0 0
0 0 0 0 0 0 0 0 0 0 0 0 0 0 0 0 0 0 0 0 0 0 0 0 0 0 0 0 0 0 0 0 0 0 0 0 0 0 0 0 0 0 0 0
0 0 0 0 0 0 0 0 0 0 0 0 0 0 0 0 0 0 0 0 0 0 0 0 0 0 0 0 0 0 0 0 0 0 0 0 0 0 0 0 0 0 0 0
0 0 0 0 0 0 0 0 0 0 0 0 0 0 0 0 0 0 0 0 0 0 0 0 0 0 0 0 0 0 0 0 0 0 0 0 0 0 0 0 0 0 0 0
0 0 0 0 0 0 0 0 0 0 0 0 0 0 0 0 0 0 0 0 0 0 0 0 0 0 0 0 0 0 0 0 0 0 0 0 0 0 0 0 0 0 0 0
0 0 0 0 0 0 0 0 0 0 0 0 0 0 0 0 0 0 0 0 0 0 0 0 0 0 0 0 0 0 0 0 0 0 0 0 0 0 0 0 0 0 0 0
0 0 0 0 0 0 0 0 0 0 0 0 0 0 0 0 0 0 0 0 0 0 0 0 0 0 0 0 0 0 0 0 0 0 0 0 0 0 0 0 0 0 0 0
Wind_Speed
4 5 7 7 8 8 6 7 9 7 3 5 10 13 11 7 7 8 7 6 6 5 4 3 3 3 3 4 4 4 4 4 4 3 3 2 2 2 2 2 2 2 2 2
4 7 8 5 5 7 7 8 9 6 2 5 9 14 12 9 9 8 8 7 6 5 4 3 3 3 4 4 4 4 4 5 5 3 3 2 2 2 2 2 2 3 3 3
7 3 3 5 6 8 9 8 7 6 6 6 8 11 10 8 7 7 6 5 5 5 4 3 3 3 3 3 4 4 4 4 5 4 2 2 1 1 2 3 3 3 4 3
7 5 4 6 7 7 8 4 5 6 5 5 3 8 8 7 7 7 7 6 5 5 4 4 4 4 4 3 3 3 3 3 4 4 4 5 4 4 4 3 3 3 4 3
5 3 4 7 7 5 4 4 5 6 6 7 6 7 8 5 6 7 6 5 4 4 4 4 4 3 3 3 2 2 2 3 3 4 5 5 4 3 2 3 4 4 4 4
5 3 4 4 2 3 2 2 4 5 3 7 8 7 8 4 6 6 5 4 3 2 2 2 2 1 1 2 2 2 2 2 2 3 4 5 6 5 4 4 4 4 3 3
5 5 4 2 2 2 2 1 1 2 4 7 4 6 7 3 2 3 4 3 2 1 1 2 2 1 2 2 2 3 3 3 3 4 4 4 5 6 6 6 5 5 3 3
4 4 6 3 3 3 4 4 4 4 5 4 3 7 5 2 1 0 0 0 1 1 1 1 1 1 2 3 3 3 3 3 4 4 4 4 4 4 4 5 5 5 4 4
3 2 2 1 1 2 4 5 3 3 4 6 7 6 6 2 1 0 1 1 0 1 1 1 1 1 2 3 3 4 3 3 3 3 4 4 4 4 4 4 5 4 4 4
1 2 2 2 2 4 4 2 1 3 4 6 7 8 5 3 3 1 1 1 1 0 0 1 1 1 1 1 2 2 2 3 3 3 3 3 3 3 4 4 5 4 4 4
2 2 2 3 6 6 5 5 4 4 4 4 6 6 1 1 1 1 1 1 1 0 0 1 1 1 1 1 0 1 2 2 2 2 3 3 3 3 3 3 4 4 4 5
3 2 3 5 3 3 5 5 5 4 5 5 6 8 3 1 1 1 2 2 2 1 1 1 1 1 1 1 1 1 1 1 2 2 2 3 3 3 3 3 4 3 3 4
3 3 2 2 2 1 4 5 5 3 3 6 8 9 2 3 3 3 3 3 3 2 2 1 1 1 2 2 2 2 1 2 2 2 2 3 3 3 3 3 3 3 3 3
2 4 6 7 4 2 5 7 7 6 6 8 12 12 9 7 5 4 3 3 3 2 2 2 2 2 2 2 2 2 2 2 2 2 2 3 3 3 3 3 3 3 3 4
3 4 5 7 7 6 8 10 10 11 12 12 13 13 11 7 5 4 3 3 3 3 2 2 3 2 3 3 2 3 3 2 2 2 3 3 3 3 3 3 3 3 3 3
3 4 3 7 7 7 11 13 13 14 14 15 16 17 7 6 5 4 3 3 4 4 3 3 3 3 3 3 3 3 4 3 2 3 3 3 2 2 3 3 3 3 3 3
4 4 3 6 3 4 11 12 14 12 11 10 15 13 4 6 6 5 4 4 5 4 3 3 4 4 4 4 4 4 4 3 3 3 3 2 2 3 3 3 3 4 4 3
5 4 3 3 1 10 9 3 7 9 11 9 9 7 5 6 6 5 4 3 5 4 3 3 4 4 4 3 3 3 3 3 3 3 3 2 2 3 3 3 4 4 3 4
6 6 4 4 6 10 7 4 3 6 8 6 7 7 6 6 6 5 3 3 4 4 3 3 3 3 3 3 3 3 3 3 3 3 3 3 3 3 4 4 4 3 3 4
3 4 5 5 6 8 4 1 1 1 7 2 3 5 5 4 5 6 4 5 5 4 3 3 3 3 3 3 3 2 3 3 4 4 4 3 3 3 4 4 3 3 3 4
5 6 8 9 8 8 3 2 2 3 6 2 1 3 4 3 5 6 7 6 4 4 4 4 3 3 3 4 3 3 3 4 5 4 4 3 3 4 4 4 3 3 3 3
9 7 8 6 8 10 2 3 4 4 2 3 3 3 4 5 6 6 6 6 6 5 5 4 4 4 4 4 3 4 4 5 5 4 4 4 4 3 3 2 2 2 3 3
7 8 5 8 8 2 3 3 2 1 2 3 4 5 5 6 6 6 6 5 5 5 5 5 4 5 5 5 4 4 5 5 5 5 4 4 4 3 2 2 3 2 2 2
5 3 4 5 6 3 3 2 2 2 2 3 3 4 4 6 7 7 6 6 5 5 5 5 5 5 6 6 5 5 6 5 5 5 5 4 3 3 2 2 2 2 2 2
5 4 5 7 5 3 4 4 3 3 3 4 4 4 4 5 6 6 6 5 5 5 5 5 5 5 6 6 6 6 6 5 4 4 4 4 3 2 2 2 2 3 3 3
5 6 7 8 4 4 4 2 2 2 4 4 5 6 5 4 6 6 5 5 5 5 5 5 5 5 6 6 6 6 6 4 3 4 4 3 2 2 2 2 3 3 3 4
Wind_Direction
188 215 220 224 230 256 278 277 273 275 283 264 266 271 270 254 240 240 234 233 231 235 227 206 199 197 179 173 173 175 178 181 177 177 180 182 192 193 188 180 186 180 189 183
206 229 235 250 261 265 265 266 270 280 274 274 276 274 269 250 239 237 234 230 228 230 222 203 195 193 187 185 184 186 192 189 192 191 191 187 182 199 194 185 190 191 192 193
228 241 246 241 251 258 258 258 273 290 308 275 286 278 257 249 234 233 233 230 225 222 217 205 199 204 195 189 193 205 202 195 192 186 174 166 160 166 193 198 202 200 197 201
244 245 239 240 245 245 258 277 293 294 292 276 245 284 269 250 234 225 227 227 224 220 213 206 202 203 200 199 194 201 203 201 195 188 184 187 196 209 211 196 200 203 199 205
235 229 235 239 243 243 263 302 290 280 274 281 254 260 273 238 238 230 223 221 224 219 207 200 196 202 204 190 189 202 210 213 212 205 200 200 209 217 209 189 194 202 202 201
248 253 245 242 245 236 259 298 285 268 257 257 233 232 269 231 234 231 220 220 222 216 196 181 165 164 194 181 184 196 212 231 227 220 215 212 213 210 205 207 197 203 205 204
233 219 207 204 209 206 199 178 276 247 223 243 232 236 252 254 243 218 218 217 199 181 157 146 145 176 213 205 207 211 209 231 235 230 228 224 223 214 208 209 202 201 207 209
220 225 182 189 204 200 211 212 217 242 255 285 274 245 254 283 330 356 322 120 120 111 106 110 165 200 214 209 211 217 215 230 237 237 235 233 236 226 217 213 207 201 204 209
220 230 116 203 267 210 203 225 256 275 282 277 254 254 272 267 285 276 343 27 65 99 49 358 327 255 211 207 213 214 218 231 237 243 244 236 233 231 226 223 214 206 202 201
263 254 213 194 242 251 237 243 205 212 242 258 261 258 253 246 261 288 352 346 333 51 47 351 319 295 270 225 226 212 214 235 240 243 246 240 238 235 231 228 221 214 203 196
243 216 226 204 208 211 201 214 220 232 245 255 272 265 267 248 264 273 281 281 296 248 118 328 314 316 332 340 293 217 222 242 248 245 254 250 236 232 228 228 224 214 205 198
212 214 237 233 249 256 235 220 204 212 243 249 268 270 281 313 46 35 352 345 333 358 26 330 334 351 352 343 323 292 265 268 268 259 254 256 251 232 227 233 229 217 206 198
170 185 225 266 251 237 234 230 228 240 259 249 253 265 293 347 4 5 353 337 338 344 347 348 355 351 341 330 324 319 298 279 282 270 259 256 261 240 229 231 227 222 210 203
212 216 216 230 248 219 242 240 225 219 234 250 249 266 286 302 316 323 330 325 320 314 316 326 327 326 321 320 320 311 296 287 284 279 259 255 257 255 239 238 226 222 215 206
193 235 244 269 285 271 258 249 235 231 235 245 261 266 273 283 293 299 302 313 314 306 308 313 316 315 309 307 306 306 293 286 281 279 267 260 264 276 257 239 231 220 217 216
193 228 248 271 269 270 267 251 241 242 244 251 265 270 272 284 294 298 304 306 303 295 292 298 303 306 305 303 299 298 293 282 266 261 268 273 272 274 263 243 234 220 222 226
197 196 217 258 275 306 261 233 227 232 231 232 249 261 289 296 296 297 294 290 290 286 285 292 292 293 297 295 291 287 291 293 277 267 272 274 271 267 266 248 239 223 225 229
201 195 215 240 228 240 245 210 214 234 244 240 255 276 280 280 287 286 283 283 292 294 291 290 295 300 301 300 301 304 303 297 281 277 275 274 272 270 276 251 240 227 224 227
206 196 211 209 235 262 268 244 219 234 261 241 251 272 286 302 303 288 301 302 290 286 287 280 281 292 297 299 307 311 307 303 286 280 277 272 267 267 272 250 243 237 227 233
198 197 213 221 235 245 251 201 208 223 268 269 256 273 290 312 287 278 304 304 301 309 312 307 309 312 302 304 313 307 305 304 287 284 285 282 273 261 261 251 249 257 234 233
181 201 217 228 242 255 249 211 117 196 261 338 312 286 296 277 266 302 318 313 314 316 320 326 323 319 315 319 324 311 305 301 304 301 299 292 281 268 265 259 253 249 237 230
188 194 206 209 230 245 164 134 185 234 325 338 328 326 310 296 302 313 323 327 333 334 337 338 333 328 331 333 325 308 303 312 321 312 301 295 290 279 273 259 260 248 223 221
208 202 198 206 223 227 161 184 217 312 298 301 308 317 317 308 308 313 317 323 327 329 331 333 331 327 332 336 331 309 313 324 323 317 302 294 290 283 269 246 245 246 224 220
227 216 226 249 249 238 216 232 276 299 277 291 297 303 309 299 302 307 313 320 325 328 329 331 331 324 324 333 335 321 318 322 316 306 298 293 288 292 289 269 249 241 235 232
212 191 224 249 258 260 245 234 248 280 292 300 303 300 299 298 301 305 309 315 318 322 325 327 321 314 316 325 325 324 322 319 309 301 295 295 295 290 289 284 266 263 255 244
202 200 211 234 225 227 242 226 242 264 280 288 292 297 305 302 298 303 304 310 314 316 321 320 318 315 316 321 319 321 320 313 303 302 302 299 299 296 288 291 306 306 303 297